This demonstration page uses our WeatherBlox Daily Observations layout. Learn more.

Left ArrowRight Arrow

Hourly Observations for April 16, 2017

Temp ( °F °C ) Dew Point ( °F °C ) Humidity (%) Winds ( mph kmh ) Pressure ( in mb ) Visibility ( mi km ) Precip ( " mm )
12:59 am 00:59 Mostly Cloudy 69 20.6 59 15 70 70 SSW 10 17 30.21 1023 10 16 0.00 0.00
1:59 am 01:59 Mostly Cloudy 69 20.6 58 14.4 68 68 SSW 10 17 30.19 1022 10 16 0.00 0.00
2:59 am 02:59 Partly Cloudy 68 20 57 13.9 68 68 SSW 9 15 30.18 1022 10 16 0.00 0.00
3:59 am 03:59 Partly Cloudy 67 19.4 56 13.3 68 68 SSW 10 17 30.18 1022 10 16 0.00 0.00
4:59 am 04:59 Partly Cloudy 66 18.9 57 13.9 73 73 SW 9 15 30.17 1022 10 16 0.00 0.00
5:59 am 05:59 Partly Cloudy 65 18.3 57 13.9 76 76 SW 14 22 30.18 1022 10 16 0.00 0.00
6:59 am 06:59 Partly Cloudy 64 17.8 57 13.9 78 78 SW 9 15 30.20 1023 9 14 0.00 0.00
7:59 am 07:59 Partly Cloudy 66 18.9 57 13.9 73 73 SW 9 15 30.21 1023 9 14 0.00 0.00
8:59 am 08:59 Partly Cloudy 70 21.1 57 13.9 64 64 WSW 10 17 30.20 1023 9 14 0.00 0.00
9:59 am 09:59 Partly Cloudy 74 23.3 57 13.9 56 56 SW 12 19 30.19 1023 9 14 0.00 0.00
10:59 am 10:59 Partly Cloudy 79 26.1 55 12.8 44 44 SW 16 26 30.18 1022 8 13 0.00 0.00
11:59 am 11:59 Mostly Cloudy 82 27.8 54 12.2 38 38 WSW 15 24 30.15 1021 9 14 0.00 0.00
12:59 pm 12:59 Mostly Cloudy 83 28.3 53 11.7 36 36 WSW 16 26 30.12 1020 9 14 0.00 0.00
1:59 pm 13:59 Mostly Cloudy 84 28.9 53 11.7 34 34 WSW 15 24 30.09 1019 10 16 0.00 0.00
2:59 pm 14:59 Mostly Cloudy 87 30.6 54 12.2 32 32 WSW 10 17 30.07 1018 10 16 0.00 0.00
3:59 pm 15:59 Mostly Cloudy 86 30 51 10.6 30 30 WSW 16 26 30.04 1017 10 16 0.00 0.00
4:59 pm 16:59 Mostly Cloudy 85 29.4 50 10 30 30 SW 20 31 30.03 1017 10 16 0.00 0.00
5:59 pm 17:59 Mostly Cloudy 83 28.3 46 7.8 27 27 WSW 14 22 30.03 1017 10 16 0.00 0.00
6:59 pm 18:59 Mostly Cloudy with Haze 81 27.2 48 8.9 32 32 SW 16 26 30.02 1017 6 10 0.00 0.00
7:59 pm 19:59 Mostly Cloudy 79 26.1 49 9.4 35 35 SW 12 19 30.03 1017 7 11 0.00 0.00
8:59 pm 20:59 Clear 77 25 49 9.4 37 37 SW 13 20 30.05 1018 7 11 0.00 0.00
9:59 pm 21:59 Clear 74 23.3 51 10.6 45 45 SW 9 15 30.07 1018 7 11 0.00 0.00
10:59 pm 22:59 Partly Cloudy 73 22.8 53 11.7 50 50 SW 10 17 30.06 1018 9 14 0.00 0.00
11:59 pm 23:59 Mostly Cloudy 72 22.2 53 11.7 52 52 SW 14 22 30.07 1018 9 14 0.00 0.00

Powered by AerisWeather